contact:dominique.lefevre@mio.osupytheas.fr, maurice.libes@osupytheas.fr, didier.mallarino@osupytheas.fr
Project:EMSO http://www.emso-fr.org/EMSO-France
Depth: 2436.0 m
Title:EMSO Ligure Ouest : Data MII capteur MICROCAT
DateTime_Computer,Latitude,Longitude,Temperature,Conductivity,Pressure,DateTime_Instrument
DateTime_Computer,Latitude,Longitude,degC,S m-1,dbar,DateTime_Instrument
2017-10-22T00:00:08Z,42.805,6.029,13.2935,4.59964,2472.002,2017-10-22T02:01:33Z
2017-10-22T00:01:43Z,42.805,6.029,13.2941,4.59962,2472.002,2017-10-22T02:03:08Z
2017-10-22T00:03:18Z,42.805,6.029,13.2935,4.59964,2471.964,2017-10-22T02:04:43Z
2017-10-22T00:04:52Z,42.805,6.029,13.2939,4.59964,2471.979,2017-10-22T02:06:18Z
2017-10-22T00:06:27Z,42.805,6.029,13.2933,4.59960,2471.979,2017-10-22T02:07:52Z
2017-10-22T00:08:02Z,42.805,6.029,13.2938,4.59958,2471.957,2017-10-22T02:09:27Z
2017-10-22T00:09:37Z,42.805,6.029,13.2935,4.59960,2471.987,2017-10-22T02:11:02Z
2017-10-22T00:11:12Z,42.805,6.029,13.2937,4.59964,2471.979,2017-10-22T02:12:37Z
2017-10-22T00:12:47Z,42.805,6.029,13.2935,4.59961,2471.957,2017-10-22T02:14:12Z
2017-10-22T00:14:21Z,42.805,6.029,13.2934,4.59961,2471.979,2017-10-22T02:15:47Z
2017-10-22T00:15:56Z,42.805,6.029,13.2935,4.59964,2471.957,2017-10-22T02:17:21Z
2017-10-22T00:17:31Z,42.805,6.029,13.2939,4.59961,2471.964,2017-10-22T02:18:56Z
2017-10-22T00:19:06Z,42.805,6.029,13.2935,4.59962,2471.979,2017-10-22T02:20:31Z
2017-10-22T00:20:41Z,42.805,6.029,13.2940,4.59961,2471.942,2017-10-22T02:22:06Z
2017-10-22T00:22:16Z,42.805,6.029,13.2939,4.59963,2471.942,2017-10-22T02:23:41Z
2017-10-22T00:23:50Z,42.805,6.029,13.2938,4.59969,2471.957,2017-10-22T02:25:16Z
2017-10-22T00:25:25Z,42.805,6.029,13.2935,4.59963,2472.002,2017-10-22T02:26:51Z
2017-10-22T00:27:00Z,42.805,6.029,13.2940,4.59961,2471.979,2017-10-22T02:28:25Z
2017-10-22T00:28:35Z,42.805,6.029,13.2937,4.59963,2471.919,2017-10-22T02:30:00Z
2017-10-22T00:30:10Z,42.805,6.029,13.2939,4.59961,2471.979,2017-10-22T02:31:35Z
2017-10-22T00:31:45Z,42.805,6.029,13.2939,4.59964,2472.002,2017-10-22T02:33:10Z
2017-10-22T00:33:19Z,42.805,6.029,13.2940,4.59960,2471.979,2017-10-22T02:34:45Z
2017-10-22T00:34:54Z,42.805,6.029,13.2939,4.59967,2471.979,2017-10-22T02:36:20Z
2017-10-22T00:36:29Z,42.805,6.029,13.2934,4.59968,2471.919,2017-10-22T02:37:54Z
2017-10-22T00:38:04Z,42.805,6.029,13.2937,4.59964,2471.964,2017-10-22T02:39:29Z
2017-10-22T00:39:39Z,42.805,6.029,13.2936,4.59965,2471.942,2017-10-22T02:41:04Z
2017-10-22T00:41:14Z,42.805,6.029,13.2937,4.59968,2471.942,2017-10-22T02:42:39Z
2017-10-22T00:42:49Z,42.805,6.029,13.2939,4.59964,2471.919,2017-10-22T02:44:14Z
2017-10-22T00:44:23Z,42.805,6.029,13.2935,4.59965,2471.942,2017-10-22T02:45:49Z
2017-10-22T00:45:58Z,42.805,6.029,13.2940,4.59967,2471.942,2017-10-22T02:47:23Z
2017-10-22T00:47:33Z,42.805,6.029,13.2935,4.59964,2471.957,2017-10-22T02:48:58Z
2017-10-22T00:49:08Z,42.805,6.029,13.2940,4.59967,2471.957,2017-10-22T02:50:33Z
2017-10-22T00:50:43Z,42.805,6.029,13.2935,4.59964,2471.957,2017-10-22T02:52:08Z
2017-10-22T00:52:18Z,42.805,6.029,13.2935,4.59962,2471.979,2017-10-22T02:53:43Z
2017-10-22T00:53:52Z,42.805,6.029,13.2936,4.59964,2471.934,2017-10-22T02:55:18Z
2017-10-22T00:55:27Z,42.805,6.029,13.2933,4.59964,2471.942,2017-10-22T02:56:52Z
2017-10-22T00:57:02Z,42.805,6.029,13.2936,4.59972,2471.934,2017-10-22T02:58:27Z
2017-10-22T00:58:37Z,42.805,6.029,13.2937,4.59969,2471.934,2017-10-22T03:00:02Z
2017-10-22T01:00:12Z,42.805,6.029,13.2946,4.59976,2471.934,2017-10-22T03:01:37Z
2017-10-22T01:01:47Z,42.805,6.029,13.2970,4.60026,2471.919,2017-10-22T03:03:12Z
2017-10-22T01:03:21Z,42.805,6.029,13.2940,4.59995,2471.942,2017-10-22T03:04:47Z
2017-10-22T01:04:56Z,42.805,6.029,13.2952,4.59997,2471.934,2017-10-22T03:06:21Z
2017-10-22T01:06:31Z,42.805,6.029,13.2942,4.59975,2471.919,2017-10-22T03:07:56Z
2017-10-22T01:08:06Z,42.805,6.029,13.2949,4.59978,2471.919,2017-10-22T03:09:31Z
2017-10-22T01:09:41Z,42.805,6.029,13.2960,4.59985,2471.919,2017-10-22T03:11:06Z
2017-10-22T01:11:16Z,42.805,6.029,13.2986,4.60002,2471.919,2017-10-22T03:12:41Z
2017-10-22T01:12:50Z,42.805,6.029,13.2975,4.60009,2471.942,2017-10-22T03:14:16Z
2017-10-22T01:14:25Z,42.805,6.029,13.2988,4.60020,2471.942,2017-10-22T03:15:50Z
2017-10-22T01:16:00Z,42.805,6.029,13.2969,4.59992,2471.934,2017-10-22T03:17:25Z
2017-10-22T01:17:35Z,42.805,6.029,13.2975,4.60009,2471.957,2017-10-22T03:19:00Z
2017-10-22T01:19:10Z,42.805,6.029,13.2975,4.59990,2471.957,2017-10-22T03:20:35Z
2017-10-22T01:20:45Z,42.805,6.029,13.2966,4.60001,2471.919,2017-10-22T03:22:10Z
2017-10-22T01:22:19Z,42.805,6.029,13.2976,4.60018,2471.942,2017-10-22T03:23:45Z
2017-10-22T01:23:54Z,42.805,6.029,13.2980,4.60046,2471.934,2017-10-22T03:25:19Z
2017-10-22T01:25:29Z,42.805,6.029,13.2970,4.59986,2471.912,2017-10-22T03:26:54Z
2017-10-22T01:27:04Z,42.805,6.029,13.2941,4.59984,2471.934,2017-10-22T03:28:29Z
2017-10-22T01:28:39Z,42.805,6.029,13.2938,4.59970,2471.919,2017-10-22T03:30:04Z
2017-10-22T01:30:14Z,42.805,6.029,13.2956,4.60019,2471.957,2017-10-22T03:31:39Z
2017-10-22T01:31:48Z,42.805,6.029,13.2959,4.59990,2471.934,2017-10-22T03:33:14Z
2017-10-22T01:33:23Z,42.805,6.029,13.2978,4.59997,2471.912,2017-10-22T03:34:48Z
2017-10-22T01:34:58Z,42.805,6.029,13.2970,4.59999,2471.934,2017-10-22T03:36:23Z
2017-10-22T01:36:33Z,42.805,6.029,13.2977,4.60000,2471.934,2017-10-22T03:37:58Z
2017-10-22T01:38:08Z,42.805,6.029,13.2970,4.60023,2471.979,2017-10-22T03:39:33Z
2017-10-22T01:39:43Z,42.805,6.029,13.2972,4.60043,2471.934,2017-10-22T03:41:08Z
2017-10-22T01:41:17Z,42.805,6.029,13.2976,4.60027,2471.912,2017-10-22T03:42:43Z
2017-10-22T01:42:52Z,42.805,6.029,13.2989,4.60030,2471.912,2017-10-22T03:44:18Z
2017-10-22T01:44:27Z,42.805,6.029,13.2954,4.60012,2471.912,2017-10-22T03:45:52Z
2017-10-22T01:46:02Z,42.805,6.029,13.2964,4.60002,2471.957,2017-10-22T03:47:27Z
2017-10-22T01:47:37Z,42.805,6.029,13.2977,4.60006,2471.942,2017-10-22T03:49:02Z
2017-10-22T01:49:12Z,42.805,6.029,13.2978,4.60009,2471.919,2017-10-22T03:50:37Z
2017-10-22T01:50:46Z,42.805,6.029,13.2975,4.60030,2471.934,2017-10-22T03:52:12Z
2017-10-22T01:52:21Z,42.805,6.029,13.2973,4.60017,2471.912,2017-10-22T03:53:47Z
2017-10-22T01:53:56Z,42.805,6.029,13.2980,4.60009,2471.934,2017-10-22T03:55:21Z
2017-10-22T01:55:31Z,42.805,6.029,13.2945,4.59979,2471.934,2017-10-22T03:56:56Z
2017-10-22T01:57:06Z,42.805,6.029,13.2964,4.59990,2471.934,2017-10-22T03:58:31Z
2017-10-22T01:58:41Z,42.805,6.029,13.2969,4.60003,2471.889,2017-10-22T04:00:06Z
2017-10-22T02:00:15Z,42.805,6.029,13.2972,4.60036,2471.934,2017-10-22T04:01:41Z
2017-10-22T02:01:50Z,42.805,6.029,13.2974,4.60034,2471.934,2017-10-22T04:03:16Z
2017-10-22T02:03:25Z,42.805,6.029,13.2964,4.60014,2471.897,2017-10-22T04:04:50Z
2017-10-22T02:05:00Z,42.805,6.029,13.2967,4.60034,2471.934,2017-10-22T04:06:25Z
2017-10-22T02:06:35Z,42.805,6.029,13.2978,4.60009,2471.934,2017-10-22T04:08:00Z
2017-10-22T02:08:10Z,42.805,6.029,13.2977,4.60029,2471.934,2017-10-22T04:09:35Z
2017-10-22T02:09:44Z,42.805,6.029,13.2964,4.60003,2471.897,2017-10-22T04:11:10Z
2017-10-22T02:11:19Z,42.805,6.029,13.2957,4.60037,2471.934,2017-10-22T04:12:45Z
2017-10-22T02:12:54Z,42.805,6.029,13.2964,4.60049,2471.934,2017-10-22T04:14:19Z
2017-10-22T02:14:29Z,42.805,6.029,13.2958,4.60046,2471.912,2017-10-22T04:15:54Z
2017-10-22T02:16:04Z,42.805,6.029,13.2965,4.60003,2471.912,2017-10-22T04:17:29Z
2017-10-22T02:17:39Z,42.805,6.029,13.2955,4.60030,2471.912,2017-10-22T04:19:04Z
2017-10-22T02:19:14Z,42.805,6.029,13.2961,4.60018,2471.934,2017-10-22T04:20:39Z
2017-10-22T02:20:48Z,42.805,6.029,13.2963,4.60049,2471.897,2017-10-22T04:22:14Z
2017-10-22T02:22:23Z,42.805,6.029,13.2963,4.60034,2471.912,2017-10-22T04:23:48Z
2017-10-22T02:23:58Z,42.805,6.029,13.2969,4.60039,2471.912,2017-10-22T04:25:23Z
2017-10-22T02:25:33Z,42.805,6.029,13.2963,4.60027,2471.912,2017-10-22T04:26:58Z
2017-10-22T02:27:08Z,42.805,6.029,13.2970,4.60022,2471.912,2017-10-22T04:28:33Z
2017-10-22T02:28:43Z,42.805,6.029,13.2968,4.60021,2471.957,2017-10-22T04:30:08Z
2017-10-22T02:30:17Z,42.805,6.029,13.2968,4.60021,2471.912,2017-10-22T04:31:43Z
2017-10-22T02:31:52Z,42.805,6.029,13.2957,4.60033,2471.919,2017-10-22T04:33:17Z
2017-10-22T02:33:27Z,42.805,6.029,13.2966,4.60017,2471.919,2017-10-22T04:34:52Z
2017-10-22T02:35:02Z,42.805,6.029,13.2973,4.60046,2471.897,2017-10-22T04:36:27Z
2017-10-22T02:36:37Z,42.805,6.029,13.2969,4.60042,2471.912,2017-10-22T04:38:02Z
2017-10-22T02:38:12Z,42.805,6.029,13.2982,4.60023,2471.957,2017-10-22T04:39:37Z
2017-10-22T02:39:46Z,42.805,6.029,13.2986,4.60024,2471.934,2017-10-22T04:41:12Z
2017-10-22T02:41:21Z,42.805,6.029,13.2976,4.60049,2471.934,2017-10-22T04:42:46Z
2017-10-22T02:42:56Z,42.805,6.029,13.2979,4.60023,2471.874,2017-10-22T04:44:21Z
2017-10-22T02:44:31Z,42.805,6.029,13.2975,4.60070,2471.912,2017-10-22T04:45:56Z
2017-10-22T02:46:06Z,42.805,6.029,13.2974,4.60005,2471.934,2017-10-22T04:47:31Z
2017-10-22T02:47:41Z,42.805,6.029,13.2953,4.59988,2471.912,2017-10-22T04:49:06Z
2017-10-22T02:49:15Z,42.805,6.029,13.2979,4.60003,2471.912,2017-10-22T04:50:41Z
2017-10-22T02:50:50Z,42.805,6.029,13.2968,4.60013,2471.934,2017-10-22T04:52:15Z
2017-10-22T02:52:25Z,42.805,6.029,13.2966,4.60061,2471.897,2017-10-22T04:53:50Z
2017-10-22T02:54:00Z,42.805,6.029,13.2970,4.60038,2471.912,2017-10-22T04:55:25Z
2017-10-22T02:55:35Z,42.805,6.029,13.2974,4.60050,2471.927,2017-10-22T04:57:00Z
2017-10-22T02:57:10Z,42.805,6.029,13.2991,4.60054,2471.912,2017-10-22T04:58:35Z
2017-10-22T02:58:44Z,42.805,6.029,13.2993,4.60021,2471.912,2017-10-22T05:00:10Z
2017-10-22T03:00:19Z,42.805,6.029,13.2982,4.60003,2471.897,2017-10-22T05:01:44Z
2017-10-22T03:01:54Z,42.805,6.029,13.2970,4.60015,2471.934,2017-10-22T05:03:19Z
2017-10-22T03:03:29Z,42.805,6.029,13.2966,4.60007,2471.934,2017-10-22T05:04:54Z
2017-10-22T03:05:04Z,42.805,6.029,13.2979,4.59990,2471.912,2017-10-22T05:06:29Z
2017-10-22T03:06:39Z,42.805,6.029,13.2986,4.59988,2471.912,2017-10-22T05:08:04Z
2017-10-22T03:08:13Z,42.805,6.029,13.2991,4.59994,2471.934,2017-10-22T05:09:39Z
2017-10-22T03:09:48Z,42.805,6.029,13.2970,4.60015,2471.934,2017-10-22T05:11:13Z
2017-10-22T03:11:23Z,42.805,6.029,13.2978,4.59987,2471.912,2017-10-22T05:12:48Z
2017-10-22T03:12:58Z,42.805,6.029,13.3005,4.59999,2471.927,2017-10-22T05:14:23Z
2017-10-22T03:14:33Z,42.805,6.029,13.3017,4.59995,2471.934,2017-10-22T05:15:58Z
2017-10-22T03:16:08Z,42.805,6.029,13.3027,4.60042,2471.912,2017-10-22T05:17:33Z
2017-10-22T03:17:42Z,42.805,6.029,13.3018,4.60078,2471.934,2017-10-22T05:19:08Z
2017-10-22T03:19:17Z,42.805,6.029,13.2998,4.60063,2471.912,2017-10-22T05:20:42Z
2017-10-22T03:20:52Z,42.805,6.029,13.2990,4.60008,2471.912,2017-10-22T05:22:17Z
2017-10-22T03:22:27Z,42.805,6.029,13.2998,4.60013,2471.934,2017-10-22T05:23:52Z
2017-10-22T03:24:02Z,42.805,6.029,13.3007,4.60044,2471.934,2017-10-22T05:25:27Z
2017-10-22T03:25:37Z,42.805,6.029,13.3008,4.60022,2471.912,2017-10-22T05:27:02Z
2017-10-22T03:27:11Z,42.805,6.029,13.3010,4.60012,2471.912,2017-10-22T05:28:37Z
2017-10-22T03:28:46Z,42.805,6.029,13.2998,4.60010,2471.897,2017-10-22T05:30:12Z
2017-10-22T03:30:21Z,42.805,6.029,13.2999,4.60042,2471.934,2017-10-22T05:31:46Z
2017-10-22T03:31:56Z,42.805,6.029,13.2993,4.60000,2471.934,2017-10-22T05:33:21Z
2017-10-22T03:33:31Z,42.805,6.029,13.2994,4.59992,2471.934,2017-10-22T05:34:56Z
2017-10-22T03:35:06Z,42.805,6.029,13.3000,4.59995,2471.919,2017-10-22T05:36:31Z
2017-10-22T03:36:40Z,42.805,6.029,13.3003,4.59984,2471.934,2017-10-22T05:38:06Z
2017-10-22T03:38:15Z,42.805,6.029,13.3013,4.59983,2471.912,2017-10-22T05:39:41Z
2017-10-22T03:39:50Z,42.805,6.029,13.3019,4.59979,2471.934,2017-10-22T05:41:15Z
2017-10-22T03:41:25Z,42.805,6.029,13.3016,4.59981,2471.897,2017-10-22T05:42:50Z
2017-10-22T03:43:00Z,42.805,6.029,13.3030,4.59981,2471.912,2017-10-22T05:44:25Z
2017-10-22T03:44:35Z,42.805,6.029,13.3021,4.60029,2471.934,2017-10-22T05:46:00Z
2017-10-22T03:46:09Z,42.805,6.029,13.3011,4.59983,2471.934,2017-10-22T05:47:35Z
2017-10-22T03:47:44Z,42.805,6.029,13.3016,4.59981,2471.897,2017-10-22T05:49:10Z
2017-10-22T03:49:19Z,42.805,6.029,13.3009,4.59979,2471.927,2017-10-22T05:50:44Z
2017-10-22T03:50:54Z,42.805,6.029,13.3008,4.59981,2471.912,2017-10-22T05:52:19Z
2017-10-22T03:52:29Z,42.805,6.029,13.2989,4.59977,2471.957,2017-10-22T05:53:54Z
2017-10-22T03:54:04Z,42.805,6.029,13.2985,4.59976,2471.934,2017-10-22T05:55:29Z
2017-10-22T03:55:39Z,42.805,6.029,13.2970,4.59978,2471.912,2017-10-22T05:57:04Z
2017-10-22T03:57:13Z,42.805,6.029,13.2966,4.59983,2471.912,2017-10-22T05:58:39Z
2017-10-22T03:58:48Z,42.805,6.029,13.2961,4.59981,2471.934,2017-10-22T06:00:13Z
2017-10-22T04:00:23Z,42.805,6.029,13.2966,4.59986,2471.919,2017-10-22T06:01:48Z
2017-10-22T04:01:58Z,42.805,6.029,13.2960,4.59981,2471.964,2017-10-22T06:03:23Z
2017-10-22T04:03:33Z,42.805,6.029,13.2958,4.59986,2471.957,2017-10-22T06:04:58Z
2017-10-22T04:05:08Z,42.805,6.029,13.2954,4.59986,2471.957,2017-10-22T06:06:33Z
2017-10-22T04:06:42Z,42.805,6.029,13.2957,4.59975,2471.934,2017-10-22T06:08:08Z
2017-10-22T04:08:17Z,42.805,6.029,13.2958,4.59972,2471.934,2017-10-22T06:09:42Z
2017-10-22T04:09:52Z,42.805,6.029,13.2962,4.59972,2471.957,2017-10-22T06:11:17Z
2017-10-22T04:11:27Z,42.805,6.029,13.2961,4.59974,2471.934,2017-10-22T06:12:52Z
2017-10-22T04:13:02Z,42.805,6.029,13.2957,4.59974,2471.934,2017-10-22T06:14:27Z
2017-10-22T04:14:37Z,42.805,6.029,13.2954,4.59975,2471.957,2017-10-22T06:16:02Z
2017-10-22T04:16:11Z,42.805,6.029,13.2957,4.59982,2471.957,2017-10-22T06:17:37Z
2017-10-22T04:17:46Z,42.805,6.029,13.2954,4.59983,2471.957,2017-10-22T06:19:11Z
2017-10-22T04:19:21Z,42.805,6.029,13.2953,4.59985,2471.934,2017-10-22T06:20:46Z
2017-10-22T04:20:56Z,42.805,6.029,13.2952,4.59986,2471.957,2017-10-22T06:22:21Z
2017-10-22T04:22:31Z,42.805,6.029,13.2951,4.59991,2471.964,2017-10-22T06:23:56Z
2017-10-22T04:24:06Z,42.805,6.029,13.2951,4.59987,2471.957,2017-10-22T06:25:31Z
2017-10-22T04:25:40Z,42.805,6.029,13.2952,4.59981,2471.934,2017-10-22T06:27:06Z
2017-10-22T04:27:15Z,42.805,6.029,13.2953,4.59978,2471.957,2017-10-22T06:28:40Z
2017-10-22T04:28:50Z,42.805,6.029,13.2958,4.59981,2471.957,2017-10-22T06:30:15Z
2017-10-22T04:30:25Z,42.805,6.029,13.2963,4.59985,2471.934,2017-10-22T06:31:50Z
2017-10-22T04:32:00Z,42.805,6.029,13.2958,4.59989,2471.934,2017-10-22T06:33:25Z
2017-10-22T04:33:35Z,42.805,6.029,13.2963,4.59993,2471.964,2017-10-22T06:35:00Z
2017-10-22T04:35:09Z,42.805,6.029,13.2966,4.59995,2471.942,2017-10-22T06:36:35Z
2017-10-22T04:36:44Z,42.805,6.029,13.2973,4.59998,2471.934,2017-10-22T06:38:09Z
2017-10-22T04:38:19Z,42.805,6.029,13.2999,4.59995,2471.942,2017-10-22T06:39:44Z
2017-10-22T04:39:54Z,42.805,6.029,13.3001,4.60000,2471.957,2017-10-22T06:41:19Z
2017-10-22T04:41:29Z,42.805,6.029,13.3010,4.60003,2471.971,2017-10-22T06:42:54Z
2017-10-22T04:43:04Z,42.805,6.029,13.3017,4.60006,2471.934,2017-10-22T06:44:29Z
2017-10-22T04:44:38Z,42.805,6.029,13.3004,4.60023,2471.934,2017-10-22T06:46:04Z
2017-10-22T04:46:13Z,42.805,6.029,13.3002,4.60029,2471.964,2017-10-22T06:47:38Z
2017-10-22T04:47:48Z,42.805,6.029,13.2998,4.60049,2471.957,2017-10-22T06:49:13Z
2017-10-22T04:49:23Z,42.805,6.029,13.2998,4.60065,2471.957,2017-10-22T06:50:48Z
2017-10-22T04:50:58Z,42.805,6.029,13.3002,4.60068,2471.957,2017-10-22T06:52:23Z
2017-10-22T04:52:33Z,42.805,6.029,13.3008,4.60054,2471.957,2017-10-22T06:53:58Z
2017-10-22T04:54:07Z,42.805,6.029,13.3010,4.60030,2471.957,2017-10-22T06:55:33Z
2017-10-22T04:55:42Z,42.805,6.029,13.2990,4.60024,2471.964,2017-10-22T06:57:08Z
2017-10-22T04:57:17Z,42.805,6.029,13.2948,4.60012,2471.979,2017-10-22T06:58:42Z
2017-10-22T04:58:52Z,42.805,6.029,13.2945,4.60009,2471.979,2017-10-22T07:00:17Z
2017-10-22T05:00:27Z,42.805,6.029,13.2941,4.60012,2471.971,2017-10-22T07:01:52Z
2017-10-22T05:02:02Z,42.805,6.029,13.2940,4.60021,2471.964,2017-10-22T07:03:27Z
2017-10-22T05:03:36Z,42.805,6.029,13.2940,4.60013,2471.979,2017-10-22T07:05:02Z
2017-10-22T05:05:11Z,42.805,6.029,13.2943,4.60036,2471.979,2017-10-22T07:06:36Z
2017-10-22T05:06:46Z,42.805,6.029,13.2942,4.60039,2471.979,2017-10-22T07:08:11Z
2017-10-22T05:08:21Z,42.805,6.029,13.2941,4.60041,2471.957,2017-10-22T07:09:46Z
2017-10-22T05:09:56Z,42.805,6.029,13.2937,4.60022,2472.002,2017-10-22T07:11:21Z
2017-10-22T05:11:31Z,42.805,6.029,13.2944,4.60012,2471.964,2017-10-22T07:12:56Z
2017-10-22T05:13:05Z,42.805,6.029,13.2945,4.60011,2471.979,2017-10-22T07:14:31Z
2017-10-22T05:14:40Z,42.805,6.029,13.2943,4.60004,2471.942,2017-10-22T07:16:05Z
2017-10-22T05:16:15Z,42.805,6.029,13.2943,4.60005,2472.002,2017-10-22T07:17:40Z
2017-10-22T05:17:50Z,42.805,6.029,13.2940,4.60001,2471.979,2017-10-22T07:19:15Z
2017-10-22T05:19:25Z,42.805,6.029,13.2942,4.59998,2472.002,2017-10-22T07:20:50Z
2017-10-22T05:21:00Z,42.805,6.029,13.2943,4.59998,2472.002,2017-10-22T07:22:25Z
2017-10-22T05:22:34Z,42.805,6.029,13.2936,4.60002,2471.979,2017-10-22T07:24:00Z
2017-10-22T05:24:09Z,42.805,6.029,13.2940,4.60003,2472.002,2017-10-22T07:25:35Z
2017-10-22T05:25:44Z,42.805,6.029,13.2938,4.60004,2472.002,2017-10-22T07:27:09Z
2017-10-22T05:27:19Z,42.805,6.029,13.2943,4.59998,2471.979,2017-10-22T07:28:44Z
2017-10-22T05:28:54Z,42.805,6.029,13.2943,4.59988,2472.024,2017-10-22T07:30:19Z
2017-10-22T05:30:29Z,42.805,6.029,13.2940,4.60005,2471.979,2017-10-22T07:31:54Z
2017-10-22T05:32:03Z,42.805,6.029,13.2940,4.60013,2471.979,2017-10-22T07:33:29Z
2017-10-22T05:33:38Z,42.805,6.029,13.2942,4.59998,2471.964,2017-10-22T07:35:04Z
2017-10-22T05:35:13Z,42.805,6.029,13.2938,4.59994,2471.979,2017-10-22T07:36:38Z
2017-10-22T05:36:48Z,42.805,6.029,13.2938,4.59987,2472.002,2017-10-22T07:38:13Z
2017-10-22T05:38:23Z,42.805,6.029,13.2939,4.59997,2472.002,2017-10-22T07:39:48Z
2017-10-22T05:39:58Z,42.805,6.029,13.2936,4.59998,2472.002,2017-10-22T07:41:23Z
2017-10-22T05:41:32Z,42.805,6.029,13.2943,4.59995,2472.002,2017-10-22T07:42:58Z
2017-10-22T05:43:07Z,42.805,6.029,13.2937,4.59996,2472.002,2017-10-22T07:44:33Z
2017-10-22T05:44:42Z,42.805,6.029,13.2936,4.59997,2472.01,2017-10-22T07:46:07Z
2017-10-22T05:46:17Z,42.805,6.029,13.2940,4.59997,2472.002,2017-10-22T07:47:42Z
2017-10-22T05:47:52Z,42.805,6.029,13.2941,4.60000,2472.002,2017-10-22T07:49:17Z
2017-10-22T05:49:27Z,42.805,6.029,13.2939,4.59998,2472.01,2017-10-22T07:50:52Z
2017-10-22T05:51:02Z,42.805,6.029,13.2936,4.59995,2471.987,2017-10-22T07:52:27Z
2017-10-22T05:52:36Z,42.805,6.029,13.2945,4.59996,2472.002,2017-10-22T07:54:02Z
2017-10-22T05:54:11Z,42.805,6.029,13.2939,4.59999,2471.979,2017-10-22T07:55:36Z
2017-10-22T05:55:46Z,42.805,6.029,13.2939,4.59993,2472.01,2017-10-22T07:57:11Z
2017-10-22T05:57:21Z,42.805,6.029,13.2937,4.59997,2472.024,2017-10-22T07:58:46Z
2017-10-22T05:58:56Z,42.805,6.029,13.2940,4.59993,2472.01,2017-10-22T08:00:21Z
2017-10-22T06:00:31Z,42.805,6.029,13.2939,4.59989,2472.01,2017-10-22T08:01:56Z
2017-10-22T06:02:05Z,42.805,6.029,13.2938,4.59981,2472.032,2017-10-22T08:03:31Z
2017-10-22T06:03:40Z,42.805,6.029,13.2939,4.59988,2472.01,2017-10-22T08:05:05Z
2017-10-22T06:05:15Z,42.805,6.029,13.2940,4.59991,2472.01,2017-10-22T08:06:40Z
2017-10-22T06:06:50Z,42.805,6.029,13.2937,4.59991,2472.047,2017-10-22T08:08:15Z
2017-10-22T06:08:25Z,42.805,6.029,13.2940,4.59988,2472.032,2017-10-22T08:09:50Z
2017-10-22T06:10:00Z,42.805,6.029,13.2937,4.59987,2472.069,2017-10-22T08:11:25Z
2017-10-22T06:11:34Z,42.805,6.029,13.2938,4.59992,2472.047,2017-10-22T08:13:00Z
2017-10-22T06:13:09Z,42.805,6.029,13.2939,4.59996,2472.024,2017-10-22T08:14:34Z
2017-10-22T06:14:44Z,42.805,6.029,13.2936,4.59992,2472.069,2017-10-22T08:16:09Z
2017-10-22T06:16:19Z,42.805,6.029,13.2940,4.59994,2471.987,2017-10-22T08:17:44Z
2017-10-22T06:17:54Z,42.805,6.029,13.2940,4.59995,2472.069,2017-10-22T08:19:19Z
2017-10-22T06:19:29Z,42.805,6.029,13.2935,4.59995,2472.032,2017-10-22T08:20:54Z
2017-10-22T06:21:03Z,42.805,6.029,13.2935,4.59997,2472.047,2017-10-22T08:22:29Z
2017-10-22T06:22:38Z,42.805,6.029,13.2938,4.59992,2472.032,2017-10-22T08:24:03Z
2017-10-22T06:24:13Z,42.805,6.029,13.2938,4.59992,2472.032,2017-10-22T08:25:38Z
2017-10-22T06:25:48Z,42.805,6.029,13.2939,4.59990,2472.069,2017-10-22T08:27:13Z
2017-10-22T06:27:23Z,42.805,6.029,13.2937,4.59990,2472.069,2017-10-22T08:28:48Z
2017-10-22T06:28:58Z,42.805,6.029,13.2937,4.59994,2472.092,2017-10-22T08:30:23Z
2017-10-22T06:30:32Z,42.805,6.029,13.2940,4.59988,2472.055,2017-10-22T08:31:58Z
2017-10-22T06:32:07Z,42.805,6.029,13.2933,4.60000,2472.092,2017-10-22T08:33:32Z
2017-10-22T06:33:42Z,42.805,6.029,13.2937,4.59986,2472.069,2017-10-22T08:35:07Z
2017-10-22T06:35:17Z,42.805,6.029,13.2940,4.59983,2472.055,2017-10-22T08:36:42Z
2017-10-22T06:36:52Z,42.805,6.029,13.2942,4.59987,2472.055,2017-10-22T08:38:17Z
2017-10-22T06:38:27Z,42.805,6.029,13.2940,4.59984,2472.047,2017-10-22T08:39:52Z
2017-10-22T06:40:01Z,42.805,6.029,13.2940,4.59975,2472.069,2017-10-22T08:41:27Z
2017-10-22T06:41:36Z,42.805,6.029,13.2939,4.59981,2472.069,2017-10-22T08:43:01Z
2017-10-22T06:43:11Z,42.805,6.029,13.2940,4.59975,2472.069,2017-10-22T08:44:36Z
2017-10-22T06:44:46Z,42.805,6.029,13.2936,4.59995,2472.069,2017-10-22T08:46:11Z
2017-10-22T06:46:21Z,42.805,6.029,13.2936,4.59995,2472.092,2017-10-22T08:47:46Z
2017-10-22T06:47:56Z,42.805,6.029,13.2937,4.60017,2472.069,2017-10-22T08:49:21Z
2017-10-22T06:49:30Z,42.805,6.029,13.2937,4.59987,2472.092,2017-10-22T08:50:56Z
2017-10-22T06:51:05Z,42.805,6.029,13.2943,4.59990,2472.069,2017-10-22T08:52:31Z
2017-10-22T06:52:40Z,42.805,6.029,13.2938,4.59994,2472.092,2017-10-22T08:54:05Z
2017-10-22T06:54:15Z,42.805,6.029,13.2939,4.59997,2472.092,2017-10-22T08:55:40Z
2017-10-22T06:55:50Z,42.805,6.029,13.2939,4.60010,2472.1,2017-10-22T08:57:15Z
2017-10-22T06:57:25Z,42.805,6.029,13.2940,4.60013,2472.115,2017-10-22T08:58:50Z
2017-10-22T06:58:59Z,42.805,6.029,13.2942,4.60015,2472.115,2017-10-22T09:00:25Z
2017-10-22T07:00:34Z,42.805,6.029,13.2940,4.60018,2472.069,2017-10-22T09:02:00Z
2017-10-22T07:02:09Z,42.805,6.029,13.2943,4.60010,2472.1,2017-10-22T09:03:34Z
2017-10-22T07:03:44Z,42.805,6.029,13.2938,4.60002,2472.092,2017-10-22T09:05:09Z
2017-10-22T07:05:19Z,42.805,6.029,13.2939,4.59996,2472.1,2017-10-22T09:06:44Z
2017-10-22T07:06:54Z,42.805,6.029,13.2936,4.60001,2472.115,2017-10-22T09:08:19Z
2017-10-22T07:08:28Z,42.805,6.029,13.2941,4.60004,2472.055,2017-10-22T09:09:54Z
2017-10-22T07:10:03Z,42.805,6.029,13.2938,4.60001,2472.092,2017-10-22T09:11:29Z
2017-10-22T07:11:38Z,42.805,6.029,13.2940,4.59993,2472.1,2017-10-22T09:13:03Z
2017-10-22T07:13:13Z,42.805,6.029,13.2935,4.59995,2472.092,2017-10-22T09:14:38Z
2017-10-22T07:14:48Z,42.805,6.029,13.2940,4.59992,2472.092,2017-10-22T09:16:13Z
2017-10-22T07:16:23Z,42.805,6.029,13.2940,4.59994,2472.069,2017-10-22T09:17:48Z
2017-10-22T07:17:57Z,42.805,6.029,13.2941,4.59989,2472.077,2017-10-22T09:19:23Z
2017-10-22T07:19:32Z,42.805,6.029,13.2938,4.59993,2472.092,2017-10-22T09:20:58Z
2017-10-22T07:21:07Z,42.805,6.029,13.2942,4.59995,2472.092,2017-10-22T09:22:32Z
2017-10-22T07:22:42Z,42.805,6.029,13.2936,4.59992,2472.092,2017-10-22T09:24:07Z
2017-10-22T07:24:17Z,42.805,6.029,13.2935,4.59993,2472.077,2017-10-22T09:25:42Z
2017-10-22T07:25:52Z,42.805,6.029,13.2935,4.59995,2472.1,2017-10-22T09:27:17Z
2017-10-22T07:27:26Z,42.805,6.029,13.2937,4.59993,2472.092,2017-10-22T09:28:52Z
2017-10-22T07:29:01Z,42.805,6.029,13.2938,4.59993,2472.115,2017-10-22T09:30:27Z
2017-10-22T07:30:36Z,42.805,6.029,13.2941,4.60009,2472.092,2017-10-22T09:32:01Z
2017-10-22T07:32:11Z,42.805,6.029,13.2937,4.59999,2472.123,2017-10-22T09:33:36Z
2017-10-22T07:33:46Z,42.805,6.029,13.2938,4.59998,2472.115,2017-10-22T09:35:11Z
2017-10-22T07:35:21Z,42.805,6.029,13.2941,4.59995,2472.115,2017-10-22T09:36:46Z
2017-10-22T07:36:56Z,42.805,6.029,13.2940,4.59997,2472.115,2017-10-22T09:38:21Z
2017-10-22T07:38:30Z,42.805,6.029,13.2940,4.60006,2472.1,2017-10-22T09:39:56Z
2017-10-22T07:40:05Z,42.805,6.029,13.2937,4.60015,2472.115,2017-10-22T09:41:30Z
2017-10-22T07:41:40Z,42.805,6.029,13.2940,4.60015,2472.115,2017-10-22T09:43:05Z
2017-10-22T07:43:15Z,42.805,6.029,13.2939,4.60051,2472.137,2017-10-22T09:44:40Z
2017-10-22T07:44:50Z,42.805,6.029,13.2936,4.60023,2472.069,2017-10-22T09:46:15Z